Dati Storici

Data ora Umidita' aria (%) Temperatura aria (°C) Rad globale (W/m²) Gonioanemometro (°) Tacoanemometro (m/s) Pioggia (mm)
08-06-2020 22:50 97.9 % 15.579 -79.271 2.489 0 0
08-06-2020 22:40 97.9 % 15.602 -76.905 1.257 0 0
08-06-2020 22:30 97.9 % 15.602 -77.359 1.467 0 0
08-06-2020 22:20 98 % 15.624 -81.658 2.451 0 0
08-06-2020 22:10 97.9 % 15.649 -77.965 3.674 0 0
08-06-2020 22:00 97.9 % 15.71 -77.201 4.109 0 0
08-06-2020 21:50 97.9 % 15.83 -81.176 1.621 0 0
08-06-2020 21:40 97.9 % 15.851 -78.149 3.04 0 0
08-06-2020 21:30 97.9 % 15.919 -78.589 2.313 0 0
08-06-2020 21:20 97.9 % 16.001 -75.072 1.519 0 0
08-06-2020 21:10 97.9 % 16.15 -69.844 1.335 0 0
08-06-2020 21:00 97.9 % 16.167 -71.973 2.549 0 0
08-06-2020 20:50 97.9 % 16.261 -73.74 1.594 0 0
08-06-2020 20:40 97.9 % 16.398 -77.617 1.909 0 0
08-06-2020 20:30 97.9 % 16.459 -78.459 2.794 0 0
08-06-2020 20:20 97.9 % 16.714 -79.105 1.533 0 0
08-06-2020 20:10 97.8 % 16.926 -80.089 2.999 0 0
08-06-2020 20:00 97.8 % 17.205 -79.278 0.94 0 0
08-06-2020 19:50 97.8 % 17.355 -81.071 1.54 0 0
08-06-2020 19:40 97.8 % 17.507 -80.939 1.477 0 0

I dati sono presentati in modo automatico a scopo informativo. In seguito a verifica i dati possono subire modifiche o essere invalidati e non riportati negli archivi definitivi.